Probability
0 0 0 0 0 0 0 0 0 0 0 0 0 0 0 0 0 0 0 0 0 0 0 0 0 0 0 0 0 0 0 0 0 0 0 0 0 0 0 0 0 0 0 0
0 0 0 0 0 0 0 0 0 0 0 0 0 0 0 0 0 0 0 0 0 0 0 0 0 0 0 0 0 0 0 0 0 0 0 0 0 0 0 0 0 0 0 0
0 0 0 0 0 0 0 0 0 0 0 0 0 0 0 0 0 0 0 0 0 0 0 0 0 0 0 0 0 0 0 0 0 0 0 0 0 0 0 0 0 0 0 0
0 0 0 0 0 0 0 0 0 0 0 0 0 0 0 0 0 0 0 0 0 0 0 0 0 0 0 0 0 0 0 0 0 0 0 0 0 0 0 0 0 0 0 0
0 0 0 0 0 0 0 0 0 0 0 0 0 0 0 0 0 0 0 0 0 0 0 0 0 0 0 0 0 0 0 0 0 0 0 0 0 0 0 0 0 0 0 0
0 0 0 0 0 0 0 0 0 0 0 0 0 0 0 0 0 0 0 0 0 0 0 0 0 0 0 0 0 0 0 0 0 0 0 0 0 0 0 0 0 0 0 0
0 0 0 0 0 0 0 0 0 0 0 0 0 0 0 0 0 0 0 0 0 0 0 0 0 0 0 0 0 0 0 0 0 0 0 0 0 0 0 0 0 0 0 0
0 0 0 0 0 0 0 0 0 0 0 0 0 0 0 0 0 0 0 0 0 0 0 0 0 0 0 0 0 0 0 0 0 0 0 0 0 0 0 0 0 0 0 0
0 0 0 0 0 0 0 0 0 0 0 0 0 0 0 0 0 0 0 0 0 0 0 0 0 0 0 0 0 0 0 0 0 0 0 0 0 0 0 0 0 0 0 0
0 0 0 0 0 0 0 0 0 0 0 0 0 0 0 0 0 0 0 0 0 0 0 0 0 0 0 0 0 0 0 0 0 0 0 0 0 0 0 0 0 0 0 0
0 0 0 0 0 0 0 0 0 0 0 0 0 0 0 0 0 0 0 0 0 0 0 0 0 0 0 0 0 0 0 0 0 0 0 0 0 0 0 0 0 0 0 0
0 0 0 0 0 0 0 0 0 0 0 0 0 0 0 0 0 0 0 0 0 0 0 0 0 0 0 0 0 0 0 0 0 0 0 0 0 0 0 0 0 0 0 0
0 0 0 0 0 0 0 0 0 0 0 0 0 0 0 0 0 0 0 0 0 0 0 0 0 0 0 0 0 0 0 0 0 0 0 0 0 0 0 0 0 0 0 0
0 0 0 0 0 0 0 0 0 0 0 0 0 0 0 0 0 0 0 0 0 0 0 0 0 0 0 0 0 0 0 0 0 0 0 0 0 0 0 0 0 0 0 0
0 0 0 0 0 0 0 0 0 0 0 0 0 0 0 0 0 0 0 0 0 0 0 0 0 0 0 0 0 0 0 0 0 0 0 0 0 0 0 0 0 0 0 0
0 0 0 0 0 0 0 0 0 0 0 0 0 0 0 0 0 0 0 0 0 0 0 0 0 0 0 0 0 0 0 0 0 0 0 0 0 0 0 0 0 0 0 0
0 0 0 0 0 0 0 0 0 0 0 0 0 0 0 0 0 0 0 0 0 0 0 0 0 0 0 0 0 0 0 0 0 0 0 0 0 0 0 0 0 0 0 0
0 0 0 0 0 0 0 0 0 0 0 0 0 0 0 0 0 0 0 0 0 0 0 0 0 0 0 0 0 0 0 0 0 0 0 0 0 0 0 0 0 0 0 0
0 0 0 0 0 0 0 0 0 0 0 0 0 0 0 0 0 0 0 0 0 0 0 0 0 0 0 0 0 0 0 0 0 0 0 0 0 0 0 0 0 0 0 0
0 0 0 0 0 0 0 0 0 0 0 0 0 0 0 0 0 0 0 0 0 0 0 0 0 0 0 0 0 0 0 0 0 0 0 0 0 0 0 0 0 0 0 0
0 0 0 0 0 0 0 0 0 0 0 0 0 0 0 0 0 0 0 0 0 0 0 0 0 0 0 0 0 0 0 0 0 0 0 0 0 0 0 0 0 0 0 0
0 0 0 0 0 0 0 0 0 0 0 0 0 0 0 0 0 0 0 0 0 0 0 0 0 0 0 0 0 0 0 0 0 0 0 0 0 0 0 0 0 0 0 0
0 0 0 0 0 0 0 0 0 0 0 0 0 0 0 0 0 0 0 0 0 0 0 0 0 0 0 0 0 0 0 0 0 0 0 0 0 0 0 0 0 0 0 0
0 0 0 0 0 0 0 0 0 0 0 0 0 0 0 0 0 0 0 0 0 0 0 0 0 0 0 0 0 0 0 0 0 0 0 0 0 0 0 0 0 0 0 0
0 0 0 0 0 0 0 0 0 0 0 0 0 0 0 0 0 0 0 0 0 0 0 0 0 0 0 0 0 0 0 0 0 0 0 0 0 0 0 0 0 0 0 0
0 0 0 0 0 0 0 0 0 0 0 0 0 0 0 0 0 0 0 0 0 0 0 0 0 0 0 0 0 0 0 0 0 0 0 0 0 0 0 0 0 0 0 0
Wind_Speed
4 5 4 6 6 5 4 2 2 5 4 4 7 9 9 7 7 8 8 9 10 10 7 8 9 9 9 8 8 7 7 5 4 3 2 2 1 0 0 0 0 1 2 2
6 2 5 7 5 4 3 1 2 4 4 4 5 8 8 6 8 9 11 11 11 8 7 8 8 8 9 9 8 8 7 6 5 3 3 2 2 1 1 1 1 0 1 2
5 4 5 6 5 5 4 4 4 3 3 3 2 8 6 5 3 4 7 9 11 13 13 11 10 8 9 9 10 9 7 7 5 4 3 3 2 2 2 1 1 2 1 0
2 3 5 6 6 7 4 5 4 1 2 4 1 3 8 4 1 4 6 7 9 10 11 11 11 10 10 9 8 9 8 7 6 5 4 4 3 2 2 2 2 2 1 1
4 4 6 6 7 8 6 3 2 1 1 3 2 2 7 3 1 4 5 7 8 10 12 13 12 12 9 8 8 8 8 7 6 5 6 5 3 2 1 1 1 1 1 2
2 3 5 5 4 4 2 3 5 5 4 2 3 2 4 4 4 4 3 5 7 9 11 10 9 8 7 7 8 8 8 6 6 6 5 5 5 3 2 1 1 1 1 2
2 1 2 2 2 2 4 6 5 6 5 5 3 2 5 6 4 4 5 5 6 8 9 9 10 10 9 9 9 8 9 7 6 6 5 5 5 5 4 3 2 1 1 1
2 2 3 2 3 2 2 7 6 2 2 5 5 1 5 4 3 2 3 4 5 7 9 11 13 12 11 11 10 10 9 8 7 6 5 5 5 3 3 3 3 3 3 3
4 3 2 2 3 4 2 2 5 6 1 2 4 3 5 3 2 1 1 2 5 8 10 11 11 11 11 12 11 11 11 8 8 7 6 5 5 4 4 4 3 2 2 3
4 2 1 0 3 2 4 5 5 4 2 2 5 3 3 4 3 2 2 3 5 7 8 9 10 11 11 11 10 9 10 9 8 7 6 5 5 5 5 4 3 3 3 3
3 4 2 2 1 2 1 2 5 4 5 4 1 6 6 5 5 4 5 5 6 7 9 10 10 10 10 8 9 9 9 8 7 7 6 5 5 5 5 4 4 4 3 3
3 6 1 3 4 3 4 4 6 4 1 4 3 7 6 4 4 3 4 4 4 6 7 8 9 8 8 9 9 9 9 9 8 8 7 6 6 5 5 5 5 4 4 3
4 6 4 7 8 6 2 1 4 6 4 3 3 7 5 4 4 4 4 4 4 3 3 3 5 7 9 10 10 10 10 10 8 7 7 6 6 6 6 6 5 5 4 3
5 5 5 4 5 4 4 4 2 5 3 4 6 7 7 6 5 5 5 4 3 2 2 2 4 6 8 9 10 10 10 9 9 8 8 7 7 7 7 6 6 5 5 4
5 3 1 3 4 2 3 5 4 4 7 7 7 4 5 4 2 3 4 6 6 6 5 3 4 6 6 7 8 9 10 9 9 9 9 9 8 7 6 6 6 5 5 5
4 2 3 5 5 5 5 6 4 4 3 4 2 1 3 0 4 7 7 8 8 7 7 6 5 5 6 8 9 10 10 10 9 10 10 9 7 7 7 7 6 6 5 5
2 3 2 3 6 5 5 5 2 0 0 3 3 3 1 4 7 6 6 7 7 7 7 8 7 6 7 8 9 11 12 10 10 11 10 9 8 8 8 7 6 7 6 5
4 3 3 1 3 3 7 2 2 5 4 2 3 1 2 3 3 5 6 7 8 9 9 9 8 8 6 5 6 8 8 9 11 11 11 10 9 9 7 7 7 7 5 5
7 6 3 2 2 6 6 4 1 3 3 4 3 3 3 1 3 6 8 7 7 7 7 7 7 6 6 5 4 5 7 9 11 12 12 11 11 10 8 8 8 7 5 5
5 5 4 3 3 5 5 6 3 6 2 4 3 4 4 5 4 4 7 7 8 8 8 9 9 8 8 7 4 3 6 8 12 13 13 12 11 11 11 10 8 6 6 6
3 2 3 4 4 6 5 5 3 3 5 1 2 3 3 2 3 4 5 6 6 7 8 9 9 8 8 8 5 3 4 8 11 11 10 10 11 12 11 9 7 6 6 6
3 3 3 3 4 7 4 2 2 4 2 2 2 2 2 1 1 3 4 6 7 8 8 8 9 9 9 8 6 6 6 7 6 6 9 11 12 11 10 9 8 7 7 6
2 4 4 6 6 3 2 1 2 4 3 2 1 1 1 1 2 3 4 5 6 7 8 7 8 9 9 8 7 7 8 7 5 5 9 10 11 11 9 10 10 7 6 6
4 1 1 1 2 2 2 2 2 2 2 2 1 1 1 1 2 3 4 5 6 6 7 7 8 9 10 10 8 8 8 7 5 5 7 8 9 9 9 8 8 8 8 7
5 2 1 3 4 2 1 0 1 1 2 2 1 1 1 1 2 2 3 4 5 5 6 7 7 8 10 10 10 9 9 7 6 6 6 6 8 9 9 8 7 9 9 10
6 6 6 7 6 5 6 4 3 2 2 1 1 1 1 1 1 2 2 3 4 5 6 7 8 9 10 10 11 10 9 7 6 6 5 4 5 6 6 6 3 1 4 8
Wind_Direction
116 94 135 186 179 161 166 165 224 248 238 215 240 254 259 238 210 203 201 197 196 194 182 165 159 154 147 147 144 146 143 145 127 112 115 111 112 167 8 307 70 57 39 35
73 120 189 176 168 170 173 163 250 274 262 229 257 269 265 235 214 200 193 194 194 181 163 166 161 159 158 157 157 153 152 150 142 143 153 160 163 199 220 295 325 3 37 23
140 199 176 162 164 190 215 188 207 235 315 308 333 320 306 285 232 195 187 187 186 179 175 174 170 171 163 162 164 162 161 154 152 143 118 86 61 38 21 346 305 296 277 25
178 205 170 176 198 191 234 221 202 216 48 311 65 298 303 307 272 193 192 180 184 182 175 175 173 173 175 172 163 156 159 154 154 145 135 136 142 171 223 232 257 287 264 258
204 175 163 191 214 189 215 210 204 240 105 339 344 142 291 326 222 233 216 194 189 184 178 179 180 179 176 164 158 158 154 155 159 154 148 144 158 196 224 249 259 290 295 290
200 184 180 200 221 186 167 51 31 44 67 345 271 149 276 264 227 229 223 205 191 186 182 179 174 163 162 158 154 154 155 164 167 161 158 160 172 184 184 214 239 273 287 300
7 311 228 170 61 14 80 72 30 14 16 272 297 99 257 263 245 201 196 203 190 181 173 168 166 169 170 168 166 163 161 170 176 170 172 180 187 186 193 207 209 204 222 249
128 282 245 179 162 168 150 129 141 166 245 293 348 25 271 279 264 216 185 184 170 176 178 178 180 178 177 177 173 170 171 174 178 178 186 191 190 186 198 203 196 194 206 221
151 253 260 199 162 139 113 134 166 136 110 5 336 330 322 345 337 357 114 152 181 187 188 186 184 183 181 181 182 179 176 177 181 183 184 190 192 188 195 198 192 194 207 218
135 122 280 187 58 32 145 146 85 86 96 358 329 311 260 266 264 274 236 214 217 202 197 195 191 190 189 187 184 179 177 179 182 183 185 188 193 193 192 185 191 197 211 217
87 112 354 39 144 227 49 73 97 103 136 139 296 282 247 237 238 229 237 233 222 213 207 202 200 197 191 184 180 181 181 178 181 187 190 188 195 198 193 192 202 201 209 211
62 106 79 283 282 208 163 167 139 135 203 155 166 268 280 265 264 252 258 267 258 228 217 209 202 192 188 188 187 187 185 184 188 188 188 195 199 195 194 201 208 205 209 215
81 89 57 354 345 353 356 186 148 133 124 150 170 264 306 344 329 312 305 305 302 282 249 225 206 199 199 197 194 192 191 190 188 184 187 195 199 199 203 206 210 208 209 215
98 100 143 185 236 265 289 285 207 132 154 212 221 246 305 323 325 334 343 333 329 327 304 253 228 222 213 204 199 196 197 191 186 184 187 195 202 204 206 206 206 206 204 201
81 103 188 230 257 267 274 279 258 204 197 195 230 225 270 293 319 357 10 14 19 6 348 311 261 241 230 218 208 201 199 193 188 186 193 202 205 203 203 203 206 206 203 205
55 93 32 338 332 343 313 288 267 240 210 197 177 254 284 17 60 41 29 27 20 360 342 323 298 266 239 225 213 205 202 196 187 191 200 201 197 198 202 204 204 201 203 204
24 100 74 294 314 356 308 278 233 129 323 158 166 220 198 70 61 47 29 24 13 355 343 334 314 284 255 235 216 209 205 193 190 197 200 197 195 198 203 203 198 201 202 199
171 121 136 236 2 253 251 292 119 101 40 57 108 107 112 124 112 59 36 24 8 356 347 338 329 313 291 263 234 218 198 190 195 200 201 199 196 199 200 198 202 205 199 199
169 149 144 142 216 277 295 311 279 131 41 359 75 60 47 94 55 17 10 13 6 351 342 334 328 318 318 302 267 222 203 198 199 203 205 202 196 196 195 199 205 204 198 204
116 123 133 145 179 241 262 300 316 100 62 339 63 65 41 51 45 317 333 353 360 354 348 345 343 346 348 334 316 245 220 207 211 211 208 202 196 195 197 201 201 197 196 206
69 88 159 184 212 253 272 302 41 116 231 259 92 86 71 86 207 263 320 351 353 350 347 349 351 351 341 340 341 302 254 232 230 219 207 199 197 198 199 197 194 192 196 201
183 172 193 161 193 247 299 37 130 201 177 147 106 95 87 91 317 338 348 348 347 348 347 349 350 344 340 344 346 323 292 271 260 226 208 204 201 200 198 193 194 191 189 195
197 189 191 190 210 242 339 122 170 144 142 154 130 98 83 32 342 339 342 341 339 340 339 340 340 337 339 343 342 325 306 308 295 243 218 212 205 203 194 190 192 189 188 194
291 2 134 270 259 308 2 61 74 115 134 145 136 117 67 5 330 334 337 337 338 336 334 335 338 337 334 334 333 320 315 318 304 269 240 219 207 204 199 194 192 191 193 197
248 308 299 265 262 306 309 305 146 122 109 100 85 75 46 8 334 329 328 331 332 331 329 333 333 328 323 326 329 327 324 322 313 294 267 237 217 206 201 198 197 197 201 198
211 204 210 236 230 215 245 244 214 175 183 176 142 13 2 2 300 315 312 311 316 320 323 327 327 324 322 325 326 327 325 321 313 307 295 258 227 212 198 186 182 206 206 212